User: anonymous   Login
Location: Chevoux
(46.3801°N, 4.9476°E)
Time: 20:52:27
(UTC+00:00)
Language:

Okean 1-7 Rocket - Orbit

View from above orbital plane
View from above orbital plane
View from above satellite
View from above satellite

Ground track
Ground track

The orbit data is extracted from the following two-line orbital elements,

1 23318U 94066B   21110.57968392  .00000083  00000-0  81304-5 0  9998
2 23318  82.5384 307.0335 0022791 326.3739  33.6026 14.78903820429797
Epoch (UTC): 20 April 2021 13:54:44
Eccentricity: 0.0022791
inclination: 82.5384°
perigee height: 617 km
apogee height: 649 km
right ascension of ascending node: 307.0335°
argument of perigee: 326.3739°
revolutions per day: 14.78903820
mean anomaly at epoch: 33.6026°
orbit number at epoch: 42979

The dashed part of the orbit path shows where the satellite is in the earth's shadow,  

DLR